This is the latest recevied weather packets stored in our database for station/object NO4D. If no packets are shown the sender has not sent any weather packets the latest 10 day(s).
| Time | Temp. | Humidity | Pressure | Rain* | Wind** | Luminosity | Snow |
|---|---|---|---|---|---|---|---|
| 1777928533 | 25.56° C | 37% | 1014.4 hPa | 0 mm | - | 398 W/m² | - |
| 1777928230 | 25° C | 37% | 1014.4 hPa | 0 mm | - | 311 W/m² | - |
| 1777927928 | 25° C | 36% | 1014.3 hPa | 0 mm | - | 478 W/m² | - |
| 1777927626 | 25.56° C | 36% | 1014.6 hPa | 0 mm | - | 500 W/m² | - |
| 1777927324 | 25° C | 37% | 1014.5 hPa | 0 mm | - | 288 W/m² | - |
| 1777927023 | 25.56° C | 33% | 1014.5 hPa | 0 mm | - | 423 W/m² | - |
| 1777926720 | 25.56° C | 33% | 1014.4 hPa | 0 mm | - | 485 W/m² | - |
| 1777926420 | 25° C | 36% | 1014.4 hPa | 0 mm | - | 546 W/m² | - |
| 1777926118 | 26.11° C | 37% | 1014.4 hPa | 0 mm | - | 610 W/m² | - |
| 1777925814 | 25.56° C | 35% | 1014.6 hPa | 0 mm | - | 619 W/m² | - |
| 1777925512 | 25.56° C | 36% | 1014.7 hPa | 0 mm | - | 408 W/m² | - |
| 1777925209 | 25.56° C | 34% | 1014.6 hPa | 0 mm | - | 540 W/m² | - |
| 1777924906 | 25.56° C | 36% | 1014.7 hPa | 0 mm | - | 702 W/m² | - |
| 1777924601 | 25.56° C | 36% | 1014.8 hPa | 0 mm | - | 645 W/m² | - |
| 1777924298 | 25.56° C | 35% | 1014.7 hPa | 0 mm | - | 643 W/m² | - |
| 1777923995 | 25° C | 34% | 1014.8 hPa | 0 mm | - | 644 W/m² | - |
| 1777923691 | 25° C | 35% | 1015 hPa | 0 mm | - | 691 W/m² | - |
| 1777923387 | 25.56° C | 34% | 1015.1 hPa | 0 mm | - | 673 W/m² | - |
| 1777923086 | 25.56° C | 33% | 1015.1 hPa | 0 mm | - | 701 W/m² | - |
| 1777922783 | 25° C | 35% | 1015.1 hPa | 0 mm | - | 688 W/m² | - |
| 1777922481 | 25° C | 33% | 1015.2 hPa | 0 mm | - | 612 W/m² | - |
| 1777922179 | 25.56° C | 33% | 1015.1 hPa | 0 mm | - | 617 W/m² | - |
| 1777921875 | 25° C | 33% | 1015.4 hPa | 0 mm | - | 621 W/m² | - |
| 1777921571 | 25° C | 31% | 1015.7 hPa | 0 mm | - | 620 W/m² | - |
| 1777921268 | 25.56° C | 34% | 1015.5 hPa | 0 mm | - | 689 W/m² | - |
* Rain latest hour (hover to see other rain measurements)
** Current wind speed in m/s (hover to see current wind gust speed)